{"data":{"norad_id":69964,"intl_designator":"2026-157X","name":"STARLINK-37914","alt_names":[],"object_type":"PAYLOAD","status":"ACTIVE","operator":null,"country":"US","launch_date":"2026-07-09","launch_site_code":"AFETR","launch_vehicle":null,"mission":null,"orbit_class":"UNKNOWN","rcs_meters":null,"size_class":null,"mass_kg":null,"dimensions":null,"purposes":["comms"],"wikipedia_slug":null,"has_3d_model":false,"image_url":null,"decayed_at":null,"tle_current":{"epoch":"2026-09-20T04:15:04.279968Z","epoch_age_seconds":45567,"freshness":"FRESH","line1":"1 69964U 26157X   26263.17713287  .00012569  00000+0  38238-3 0  9999","line2":"2 69964  53.1565 335.2124 0001393  95.0148 265.1013 15.34410079 11323","mean_motion":15.34410079,"eccentricity":0.0001393,"inclination_deg":53.1565,"raan_deg":335.2124,"arg_perigee_deg":95.0148,"mean_anomaly_deg":265.1013,"bstar":0.00038238,"rev_number":1132,"period_min":93.847141628428,"perigee_km":461.72035858655,"apogee_km":463.62620833152,"semimajor_km":6840.810283459,"source":"CELESTRAK","updated_at":"2026-09-20T09:00:44.303265Z"}}}